Location: Unspecified
(47.5840°N, 122.3000°W)
Time: 18:55:08
(UTC+00:00)

IRIDIUM 114 - Pass Details

Date: 23 March 2026
Orbit: 776 x 779 km, 86.4° (Epoch: 14 April)

Event Time Altitude Azimuth Distance (km) Brightness Sun altitude
Exits shadow 03:05:06 - 117° (ESE) 2,517 6.4 -7.5°
Reaches altitude 10° 03:05:52 10° 111° (ESE) 2,331 6.2 -7.6°
Maximum altitude 03:08:52 16° 75° (ENE) 1,972 5.9 -8.1°
Drops below altitude 10° 03:11:51 10° 40° (NE) 2,340 6.5 -8.6°
Sets 03:15:06 0° 19° (NNE) 3,273 7.5 -9.2°
